Wind_Speed
20 19 19 19 19 19 18 19 19 17 15 13 12 12 11 10 9 8 8 8 8 7 7 7 8 9 9 9 9 8 9 9 9 10 10 10 10 11 11 12 11 11 10 10 10 10 9 9 8
20 20 19 20 20 19 20 20 19 18 16 15 14 13 12 10 10 9 9 8 8 8 8 8 8 9 9 9 9 9 9 9 9 10 10 11 11 11 11 12 11 10 10 9 9 10 9 8 8
21 20 20 20 20 21 21 21 20 19 17 16 15 14 12 11 10 9 9 9 9 9 10 10 10 11 11 10 10 10 10 10 10 11 10 11 10 10 10 11 10 10 10 9 9 8 7 7 8
21 20 20 19 20 21 21 22 22 20 18 17 16 14 12 11 11 10 10 9 10 10 10 11 12 12 12 12 12 11 10 10 11 11 10 11 10 10 10 9 9 9 9 8 8 8 7 7 7
20 20 19 19 20 21 21 22 22 21 19 17 16 14 12 11 11 11 10 10 11 11 11 11 12 12 13 13 12 12 11 11 11 11 11 11 10 9 9 9 8 8 8 8 8 7 6 7 7
19 19 19 20 21 22 23 23 23 21 18 17 16 15 13 12 12 12 11 11 11 12 12 12 12 13 13 13 13 12 11 11 11 11 11 10 9 9 9 8 8 8 7 7 7 6 6 6 6
18 19 21 22 22 23 23 23 23 21 19 18 16 15 14 13 12 12 11 12 13 13 13 13 14 13 13 13 12 12 11 11 11 11 10 9 8 8 8 7 7 7 6 6 6 5 5 5 4
18 19 21 23 23 23 24 24 23 22 20 19 18 17 15 14 14 13 12 12 14 14 14 14 14 13 13 13 12 12 11 11 10 10 9 9 9 8 7 6 6 6 5 5 5 5 4 4 4
18 19 22 23 23 23 23 24 23 23 22 21 19 18 17 16 15 14 13 13 13 14 14 13 13 13 13 13 12 12 11 10 9 9 8 8 7 7 6 6 5 5 5 4 4 4 4 3 3
18 19 21 22 23 23 23 23 22 23 22 22 20 19 17 16 15 15 14 14 14 14 14 14 13 12 12 12 12 11 11 10 9 9 8 7 6 6 6 6 5 5 4 4 4 3 3 2 2
17 18 19 21 22 23 23 23 22 22 22 21 20 19 18 17 16 16 15 15 15 14 14 14 13 12 11 11 11 11 10 9 9 8 8 7 6 6 5 5 5 4 3 3 3 2 2 2 1
15 15 17 19 21 22 23 22 22 22 22 21 20 19 19 19 18 17 16 16 16 15 14 14 13 12 11 11 10 10 10 9 8 7 7 7 6 6 6 6 5 4 3 3 3 3 2 1 1
13 14 16 17 19 21 22 22 21 21 21 21 20 20 19 19 18 17 16 16 16 16 15 14 13 11 11 10 10 9 9 8 8 7 7 6 6 5 5 4 4 4 3 3 3 2 2 1 0
11 12 15 17 18 19 20 20 20 20 20 20 20 19 19 19 18 18 17 16 15 15 14 14 13 11 10 10 9 9 9 8 8 7 7 6 5 5 4 3 3 3 3 2 1 0 1 1 2
10 10 13 15 17 18 18 19 19 19 19 19 20 20 19 19 18 18 18 16 16 15 15 14 13 12 10 10 9 8 8 8 7 7 6 5 4 4 3 2 2 2 2 2 1 2 2 3 3
7 8 10 12 14 15 16 17 17 18 18 18 19 20 20 19 18 18 18 17 16 16 15 14 13 12 11 10 9 8 7 7 6 6 6 5 4 3 3 3 2 1 2 3 3 3 4 4 4
5 6 8 9 11 13 14 15 15 15 16 17 17 18 19 19 18 17 17 17 16 16 15 14 12 11 11 10 9 7 7 6 6 6 5 4 3 3 3 3 3 3 4 4 4 4 5 5 6
4 4 5 6 8 10 12 13 13 13 14 15 15 16 17 18 17 16 16 16 15 15 15 13 12 11 10 10 9 9 8 7 6 5 5 5 4 4 4 4 5 5 6 5 5 5 6 6 6
5 3 2 3 5 7 9 10 10 10 11 12 13 14 14 16 16 16 15 15 15 14 14 13 12 11 10 10 10 9 8 7 6 6 5 5 5 5 5 6 6 6 7 6 6 6 6 7 7
7 5 4 2 2 3 5 7 8 8 9 10 11 12 13 14 15 15 15 15 14 14 14 13 12 12 11 10 10 10 9 8 7 7 6 6 7 7 7 7 7 7 7 7 7 6 7 7 8
9 8 6 4 2 0 2 4 6 7 7 8 9 10 11 12 13 14 14 14 14 14 14 13 12 12 11 11 10 10 9 9 9 8 8 8 8 8 8 8 8 7 7 8 8 7 8 8 9
12 11 9 6 5 3 3 2 3 5 6 6 7 8 9 10 11 12 13 12 12 12 13 13 12 12 11 11 11 10 10 9 9 9 9 9 8 9 9 9 9 8 8 9 9 9 9 9 10
14 14 12 10 8 7 5 4 2 3 4 4 5 6 7 9 10 10 10 11 11 12 12 12 12 12 12 11 11 11 10 10 9 9 10 10 10 9 10 10 10 9 9 9 10 10 10 10 11
17 16 15 13 12 10 7 6 3 3 4 3 3 5 5 7 8 9 9 10 10 11 12 12 12 12 12 12 12 11 10 10 10 10 10 11 10 10 10 11 11 10 10 10 11 11 11 11 11
21 19 18 16 15 12 10 8 5 3 3 3 2 3 3 5 6 7 8 8 9 9 10 10 11 12 12 12 12 12 11 11 11 11 11 11 11 11 12 12 12 11 11 11 11 11 11 11 12
22 20 19 18 16 14 13 10 8 6 5 4 2 1 2 3 5 5 6 6 7 8 9 9 9 11 12 12 12 12 11 12 12 12 12 12 12 12 12 12 12 12 11 11 12 12 11 11 12
24 23 20 19 19 18 16 12 11 9 7 5 4 3 3 4 4 3 4 5 5 7 8 8 9 10 12 13 13 13 11 11 11 12 12 12 12 12 12 12 12 12 12 12 13 13 13 13 12
26 24 22 21 20 20 18 15 12 10 9 8 7 5 4 4 4 4 4 5 5 6 8 8 8 9 11 13 14 13 12 12 12 12 12 12 12 12 12 13 13 13 13 13 14 13 14 14 13
27 26 24 23 22 21 19 16 14 12 11 10 9 7 6 4 5 5 5 5 6 7 8 8 9 10 11 12 13 13 13 13 13 12 13 13 13 13 13 13 14 14 14 14 14 14 14 14 14
29 28 26 26 24 22 20 17 15 14 13 12 11 10 8 7 6 6 7 7 8 8 9 9 10 11 12 13 13 13 13 13 13 13 13 14 14 14 14 14 15 15 14 14 14 15 14 14 14
Wind_Direction
60 61 61 60 58 56 55 56 56 59 60 59 60 62 64 67 71 73 75 77 78 78 78 82 85 88 91 102 109 109 104 111 110 112 115 115 115 113 114 115 113 113 115 116 120 128 128 125 124
61 62 61 59 58 56 56 54 53 54 56 57 59 61 64 67 70 72 75 77 79 80 85 88 88 88 89 94 102 108 110 109 114 117 121 119 117 115 118 119 117 116 119 120 123 124 124 128 127
60 59 60 59 59 58 57 56 54 52 53 56 57 59 61 65 69 71 74 80 84 85 89 92 92 92 93 95 100 107 111 110 112 114 116 119 117 119 120 120 117 117 120 123 123 122 121 122 122
57 57 57 59 60 59 58 56 54 52 51 53 56 57 59 63 67 71 76 85 87 89 92 91 89 92 94 98 101 106 110 109 108 107 111 115 118 120 118 121 121 119 118 118 119 120 122 121 119
58 56 56 59 60 59 57 56 54 52 51 53 56 57 61 64 69 72 78 86 87 88 89 92 92 94 95 96 97 101 106 105 103 105 109 112 114 116 116 121 121 121 122 121 121 123 125 125 124
59 57 59 61 60 57 55 53 52 49 50 52 55 58 62 64 71 75 79 85 87 88 88 89 92 96 94 94 92 94 99 101 102 104 107 109 112 111 113 118 118 121 123 124 127 127 124 122 125
59 58 61 61 59 57 55 53 52 49 49 52 54 60 62 64 70 77 81 84 90 91 89 90 93 94 92 90 91 92 97 102 103 104 104 104 111 111 109 113 117 119 118 122 127 127 125 125 132
64 61 61 61 59 57 56 54 53 52 51 53 55 60 64 67 70 78 83 84 88 90 90 89 90 91 92 88 86 88 91 95 98 99 98 100 101 103 104 112 119 122 123 127 132 133 129 128 136
68 64 62 61 59 57 57 56 54 53 53 53 55 59 63 68 71 77 81 84 85 89 89 89 90 89 90 89 86 85 86 90 93 93 90 92 94 97 106 111 120 120 122 126 130 128 129 135 138
71 66 64 62 61 58 57 56 54 53 53 54 56 59 63 67 70 74 77 83 85 89 88 88 89 89 89 89 86 85 87 87 89 91 90 89 89 90 97 101 108 111 112 116 120 125 120 129 136
73 68 65 63 62 59 57 56 54 53 54 55 56 57 62 66 69 71 75 80 83 86 87 89 86 86 87 88 86 85 86 87 88 89 88 87 86 92 92 95 107 112 110 114 116 115 117 119 119
75 73 68 64 63 61 57 55 54 54 54 55 56 59 62 64 67 69 72 78 82 83 86 86 87 86 84 84 84 85 84 82 83 84 82 81 84 90 89 88 88 90 100 102 100 102 105 105 117
78 75 73 69 66 61 57 54 54 55 54 54 56 59 63 65 66 68 69 73 78 79 82 86 86 86 82 79 79 81 82 82 79 78 80 80 79 81 86 87 78 80 89 96 96 97 89 85 77
81 76 76 73 69 63 58 55 54 55 54 54 55 58 61 64 65 66 68 72 75 76 77 80 81 82 80 79 78 77 79 79 76 74 76 76 70 69 68 67 64 66 71 75 80 26 332 321 309
88 82 77 75 70 64 59 56 54 54 54 55 56 58 61 63 63 64 66 69 71 72 74 75 72 71 72 74 74 74 73 72 71 70 68 68 66 62 56 47 34 27 34 38 20 342 326 316 306
100 92 79 74 71 66 61 57 54 52 54 55 56 57 58 60 60 61 63 66 68 69 69 70 70 67 66 67 68 71 71 64 59 56 58 59 62 58 40 26 21 356 349 345 332 316 314 308 304
111 95 80 74 72 71 65 61 56 52 53 53 54 56 57 57 58 60 61 63 64 65 65 65 65 62 61 58 55 61 63 56 50 46 41 39 37 33 17 0 1 352 335 330 321 308 306 300 302
140 106 89 76 73 76 71 68 63 55 51 50 52 54 55 56 57 59 60 61 61 61 60 60 59 59 57 57 51 54 55 53 47 35 27 20 13 7 355 343 334 328 324 323 317 312 309 304 300
182 172 133 97 76 79 72 68 65 56 51 49 52 54 54 55 56 57 58 59 59 58 57 57 57 57 56 54 51 49 46 44 36 25 21 15 3 351 341 336 326 322 322 322 312 310 306 301 302
208 206 201 180 93 75 70 63 58 56 53 48 49 52 52 55 56 57 59 59 59 57 56 54 54 55 56 54 49 46 40 34 27 19 14 8 1 354 344 338 328 323 325 327 320 309 302 297 300
213 207 213 227 226 22 41 51 46 54 54 50 49 49 50 51 52 53 55 56 56 55 54 53 53 55 53 50 46 41 35 31 25 21 13 6 359 353 344 339 333 328 326 320 316 307 301 297 300
211 211 217 224 235 251 293 330 23 41 44 51 51 49 49 46 46 46 48 50 51 51 50 50 51 51 49 45 41 37 32 27 22 17 11 4 356 351 351 346 341 335 330 326 317 310 304 302 304
217 223 227 231 238 246 266 283 338 13 27 44 54 48 48 43 40 40 41 43 46 46 47 46 46 46 42 37 32 29 26 23 19 14 9 6 359 353 352 348 344 338 334 330 322 316 308 303 303
223 228 232 235 238 240 252 265 288 331 6 28 52 46 43 40 35 34 36 40 41 41 42 42 42 41 37 33 27 23 19 17 14 10 7 5 2 358 355 350 349 344 338 331 325 321 316 308 304
225 229 233 236 237 237 245 256 268 294 325 340 19 44 39 36 30 28 34 38 36 34 34 36 37 36 32 27 22 17 14 11 9 7 6 3 2 359 356 351 347 344 339 335 332 327 321 315 311
227 231 234 239 238 240 246 250 255 266 283 303 316 337 2 17 22 21 27 31 27 24 25 28 27 24 21 19 15 11 8 7 5 3 1 359 357 356 353 350 347 345 341 337 335 332 327 322 319
226 229 233 240 243 243 242 246 249 259 266 285 297 287 313 344 0 0 10 14 12 9 14 18 16 15 14 10 7 4 2 359 356 354 352 353 353 352 351 349 348 347 344 339 336 334 331 327 322
227 230 232 237 241 243 243 244 248 257 267 276 288 288 288 320 331 327 343 346 346 350 357 359 1 4 4 2 1 358 356 352 349 346 344 344 345 345 345 346 345 344 342 340 337 334 330 328 324
226 229 233 237 242 245 248 247 249 255 262 271 279 280 282 292 312 316 323 331 334 335 341 343 345 349 349 351 352 352 350 347 345 343 341 340 339 338 339 340 340 339 338 338 338 335 331 329 327
226 230 233 236 241 245 248 247 247 250 259 266 268 270 276 281 291 304 310 315 319 324 328 329 332 336 337 339 342 343 342 341 340 337 336 336 335 333 332 332 332 332 332 335 336 335 333 329 327
Height
5881 5879 5878 5877 5876 5874 5871 5870 5868 5867 5867 5866 5865 5864 5864 5864 5865 5867 5865 5863 5863 5863 5862 5862 5862 5862 5863 5863 5863 5864 5865 5866 5867 5868 5869 5870 5871 5872 5872 5873 5874 5875 5876 5877 5878 5879 5880 5881 5882
5884 5882 5882 5880 5877 5875 5874 5871 5870 5869 5868 5867 5866 5866 5866 5865 5866 5865 5864 5864 5864 5864 5863 5863 5863 5863 5864 5864 5865 5866 5866 5868 5868 5870 5870 5871 5873 5874 5874 5875 5876 5877 5878 5879 5880 5881 5882 5883 5884
5886 5885 5885 5882 5879 5878 5876 5874 5872 5871 5870 5869 5868 5868 5867 5867 5867 5866 5866 5866 5866 5866 5865 5865 5864 5864 5865 5865 5866 5867 5868 5869 5870 5871 5872 5873 5874 5875 5876 5877 5878 5879 5880 5881 5882 5882 5883 5884 5885
5890 5889 5887 5885 5882 5880 5878 5876 5874 5873 5872 5871 5870 5870 5869 5869 5868 5868 5867 5867 5867 5867 5867 5866 5866 5867 5867 5867 5868 5869 5870 5871 5872 5873 5873 5874 5875 5877 5878 5878 5879 5880 5881 5882 5883 5884 5885 5885 5886
5893 5892 5890 5887 5885 5883 5881 5878 5877 5876 5875 5873 5872 5872 5871 5871 5870 5869 5869 5869 5869 5869 5869 5869 5868 5869 5869 5870 5870 5871 5872 5873 5874 5875 5876 5876 5877 5878 5879 5880 5881 5882 5883 5883 5884 5885 5886 5887 5887
5896 5894 5892 5889 5887 5885 5883 5881 5879 5878 5877 5876 5875 5874 5873 5873 5872 5871 5871 5871 5871 5871 5871 5871 5870 5871 5872 5872 5873 5873 5874 5875 5876 5877 5877 5878 5879 5879 5880 5881 5882 5883 5884 5885 5886 5887 5887 5888 5889
5899 5897 5894 5892 5889 5888 5886 5884 5882 5881 5880 5879 5877 5876 5875 5875 5874 5874 5873 5873 5873 5873 5873 5873 5873 5873 5874 5875 5875 5876 5876 5877 5878 5878 5879 5880 5880 5881 5882 5883 5884 5884 5885 5886 5886 5887 5888 5889 5889
5900 5900 5896 5894 5893 5891 5889 5888 5886 5884 5883 5882 5880 5879 5878 5877 5877 5876 5876 5876 5875 5876 5876 5876 5876 5876 5877 5877 5878 5878 5879 5879 5880 5880 5881 5881 5882 5883 5884 5884 5885 5885 5886 5887 5887 5888 5889 5889 5890
5903 5902 5899 5897 5896 5895 5893 5891 5890 5888 5886 5885 5883 5882 5881 5880 5879 5879 5878 5878 5878 5878 5878 5879 5879 5879 5879 5880 5880 5881 5881 5881 5882 5882 5883 5883 5884 5884 5885 5885 5886 5886 5887 5887 5888 5888 5889 5890 5890
5906 5904 5902 5901 5900 5898 5896 5895 5894 5892 5890 5888 5887 5885 5884 5883 5883 5882 5881 5881 5880 5881 5881 5881 5881 5882 5882 5882 5883 5883 5883 5883 5884 5884 5884 5885 5885 5886 5886 5887 5887 5887 5888 5888 5888 5889 5889 5890 5890
5908 5907 5906 5904 5903 5901 5900 5899 5897 5895 5894 5892 5891 5889 5887 5887 5886 5885 5884 5884 5883 5883 5883 5883 5884 5884 5884 5884 5885 5885 5885 5885 5885 5886 5886 5886 5887 5887 5888 5888 5888 5888 5889 5889 5889 5889 5890 5890 5890
5911 5909 5908 5907 5906 5905 5903 5902 5901 5899 5898 5896 5894 5893 5891 5890 5889 5889 5888 5886 5886 5886 5886 5886 5886 5887 5887 5887 5887 5887 5887 5887 5888 5888 5888 5888 5888 5889 5889 5888 5888 5889 5889 5890 5890 5890 5890 5891 5891
5913 5912 5911 5910 5909 5908 5907 5906 5904 5903 5901 5900 5898 5896 5895 5894 5893 5892 5891 5890 5889 5889 5889 5889 5889 5889 5889 5889 5889 5889 5889 5889 5889 5889 5889 5889 5890 5890 5890 5890 5890 5890 5890 5890 5890 5891 5891 5891 5891
5915 5915 5914 5913 5912 5911 5910 5909 5908 5906 5905 5903 5901 5900 5898 5897 5896 5895 5894 5893 5892 5892 5892 5891 5891 5891 5891 5891 5891 5891 5891 5891 5891 5891 5890 5890 5891 5891 5891 5891 5891 5891 5891 5891 5891 5891 5891 5891 5891
5917 5917 5917 5915 5914 5914 5914 5913 5911 5910 5908 5907 5905 5903 5902 5900 5899 5898 5897 5896 5895 5894 5894 5894 5894 5894 5893 5893 5893 5893 5893 5892 5892 5892 5892 5892 5891 5891 5891 5891 5891 5891 5891 5891 5891 5891 5890 5890 5890
5919 5919 5918 5918 5917 5916 5917 5916 5915 5913 5912 5910 5909 5907 5905 5903 5902 5901 5900 5899 5898 5897 5897 5896 5896 5896 5895 5895 5895 5894 5894 5894 5893 5893 5893 5893 5892 5892 5892 5892 5891 5891 5891 5891 5890 5890 5890 5890 5890
5920 5920 5919 5920 5919 5918 5918 5918 5917 5916 5915 5913 5912 5910 5908 5907 5906 5904 5903 5902 5901 5900 5899 5899 5898 5898 5897 5897 5896 5896 5895 5895 5895 5894 5894 5893 5893 5893 5893 5892 5892 5891 5891 5890 5890 5890 5889 5889 5889
5921 5921 5921 5921 5921 5920 5920 5920 5919 5919 5917 5916 5914 5913 5911 5910 5909 5907 5906 5905 5904 5903 5902 5901 5900 5900 5899 5899 5898 5897 5897 5896 5896 5895 5894 5894 5893 5893 5893 5892 5891 5891 5891 5890 5890 5889 5888 5888 5887
5921 5922 5922 5922 5922 5922 5921 5921 5921 5920 5920 5918 5917 5916 5914 5912 5911 5910 5909 5908 5906 5905 5904 5903 5902 5902 5901 5900 5899 5899 5898 5898 5897 5896 5895 5895 5894 5893 5892 5892 5891 5890 5890 5889 5889 5888 5887 5887 5886
5920 5922 5923 5923 5923 5923 5923 5923 5923 5922 5921 5920 5919 5918 5916 5915 5914 5912 5911 5910 5909 5908 5907 5906 5904 5903 5903 5902 5901 5900 5900 5899 5898 5897 5896 5895 5894 5893 5892 5891 5890 5889 5889 5888 5887 5887 5886 5886 5885
5920 5922 5923 5923 5923 5924 5924 5924 5924 5924 5923 5922 5921 5920 5919 5917 5916 5915 5913 5912 5911 5910 5909 5908 5907 5905 5905 5904 5903 5902 5901 5900 5899 5898 5897 5895 5894 5892 5891 5891 5890 5889 5888 5887 5886 5885 5885 5884 5884
5919 5921 5922 5923 5924 5924 5925 5925 5925 5924 5924 5923 5923 5922 5920 5919 5918 5916 5915 5914 5913 5912 5911 5909 5908 5907 5906 5905 5904 5903 5902 5901 5900 5898 5897 5895 5894 5892 5891 5890 5889 5888 5887 5886 5885 5884 5883 5882 5881
5918 5919 5921 5922 5923 5924 5924 5925 5926 5925 5924 5924 5924 5923 5922 5921 5919 5918 5917 5916 5915 5914 5912 5911 5910 5909 5908 5907 5905 5904 5903 5902 5900 5899 5897 5895 5894 5892 5891 5889 5888 5887 5886 5884 5883 5882 5881 5880 5879
5915 5917 5919 5920 5921 5923 5924 5924 5925 5925 5925 5925 5924 5923 5923 5922 5921 5920 5918 5917 5916 5915 5914 5913 5912 5911 5909 5908 5907 5905 5904 5902 5901 5899 5897 5895 5894 5892 5890 5889 5887 5886 5885 5883 5882 5880 5879 5878 5877
5912 5915 5916 5917 5918 5921 5922 5923 5925 5925 5925 5924 5924 5924 5923 5922 5921 5920 5919 5918 5917 5917 5915 5914 5913 5912 5910 5909 5908 5906 5904 5903 5901 5899 5898 5896 5894 5892 5890 5889 5887 5885 5884 5882 5881 5879 5877 5876 5874
5909 5912 5914 5916 5917 5918 5920 5921 5924 5924 5924 5924 5923 5923 5923 5922 5922 5921 5920 5919 5918 5917 5916 5915 5914 5913 5911 5910 5908 5906 5904 5903 5901 5899 5898 5896 5894 5892 5890 5889 5887 5885 5883 5881 5879 5877 5875 5873 5872
5905 5908 5911 5913 5914 5916 5917 5920 5922 5923 5923 5923 5923 5923 5923 5923 5922 5921 5920 5919 5918 5918 5916 5915 5914 5913 5911 5910 5908 5906 5904 5903 5901 5899 5898 5896 5894 5892 5890 5888 5886 5884 5882 5880 5878 5875 5873 5871 5870
5902 5905 5907 5909 5911 5912 5915 5917 5920 5921 5922 5923 5923 5923 5922 5922 5921 5920 5920 5919 5918 5917 5916 5915 5914 5913 5911 5909 5908 5906 5904 5902 5900 5899 5897 5895 5894 5892 5890 5888 5885 5883 5881 5879 5876 5874 5872 5869 5867
5897 5900 5903 5906 5908 5910 5912 5917 5918 5919 5920 5921 5921 5922 5921 5921 5920 5920 5919 5918 5918 5917 5916 5915 5913 5912 5911 5909 5907 5905 5903 5901 5900 5898 5896 5894 5892 5890 5888 5886 5884 5882 5879 5877 5875 5872 5870 5867 5865
5892 5896 5899 5902 5905 5907 5909 5914 5915 5916 5918 5918 5919 5919 5919 5919 5919 5918 5917 5917 5916 5915 5915 5914 5912 5911 5910 5908 5906 5904 5902 5900 5899 5897 5895 5893 5891 5889 5887 5885 5882 5880 5877 5875 5873 5870 5868 5866 5864